Regional Weather Roundup
Issued by NWS

Home | Current Version | Previous Version | Text Only | Print | Product List | Glossary Off
Versions: 1 2 3 4 5 6 7 8 9 10 11 12 13 14 15 16 17 18 19 20 21 22 23 24 25 26 27 28 29 30 31 32 33 34 35 36 37 38 39 40 41 42 43 44 45 46 47 48 49 50

000
ASUS45 KABQ 301701
RWRNM
WEATHER ROUNDUP FOR NEW MEXICO
NATIONAL WEATHER SERVICE ALBUQUERQUE NM
1000 AM MST FRI JAN 30 2015

NOTE: "FAIR" MEANS FEW OR NO CLOUDS BELOW 12,000 FEET AGL WITH NO
       SIGNIFICANT WEATHER OR OBSTRUCTIONS TO VISION.

      THIS PRODUCT IS RELEASED AS TWO VERSIONS.  ONE VERSION NEAR
      THE TOP OF THE HOUR CONTAINING PRELIMINARY DATA FROM ALBUQUERQUE
      AND OTHER STATIONS.  A FINAL VERSION WITH ADDITIONAL DATA IS
      ISSUED ABOUT 10 MINUTES AFTER THE HOUR.

NMZ501-503-504-510>518-301800-
NORTHWEST PLATEAU/NORTHCENTRAL MOUNTAINS

CITY           SKY/WX    TMP DP  RH WIND       PRES   REMARKS
FARMINGTON     LGT SNOW  32  31  96 E10       30.19S VSB 3/4 WCI  24
SANTA FE       LGT SNOW  30  27  88 S9        30.28S VSB 3/4 WCI  22
TAOS           CLOUDY    27  23  86 CALM      30.28S VSB 1

$$
NMZ402-403-502-505>509-301800-
WESTCENTRAL MOUNTAINS/SOUTHWEST MOUNTAINS

CITY           SKY/WX    TMP DP  RH WIND       PRES   REMARKS
GALLUP         LGT SNOW  32  30  92 NE6       30.13F FOG     WCI  26
SILVER CITY    LGT RAIN  39  37  93 E15       30.20R WCI  31

$$
NMZ407-409-411-412-301800-
SOUTHERN DESERTS

CITY           SKY/WX    TMP DP  RH WIND       PRES   REMARKS
DEMING         CLOUDY    41  39  93 E20       30.20R
HOLLOMAN AFB   CLOUDY    43  43 100 SW10      30.24S
ALAMOGORDO     CLOUDY    41  41 100 W6        30.26R
T OR C         LGT RAIN  38  36  92 N8        30.22F WCI  32

$$
NMZ519>523-301800-
CENTRAL VALLEYS/CENTRAL HIGHLANDS

CITY           SKY/WX    TMP DP  RH WIND       PRES   REMARKS
ALBUQUERQUE    LGT SNOW  34  30  85 E17       30.26F FOG     WCI  23
DOUBLE EAGLE   LGT SNOW  30  28  93 N6        30.26F VSB 1   WCI  24
CLINES CORNERS SNOW      27  25  92 E14       30.26S VSB 1/2 WCI  16
BELEN          LGT SNOW  32  32 100 NW7       30.26S WCI  26
SOCORRO        NOT AVBL

$$
NMZ524>526-539-540-301800-
SOUTHCENTRAL MOUNTAINS

CITY           SKY/WX    TMP DP  RH WIND       PRES   REMARKS
RUIDOSO        NOT AVBL

$$
NMZ527>531-301800-
NORTHEAST HIGHLANDS/NORTHEAST PLAINS

CITY           SKY/WX    TMP DP  RH WIND       PRES   REMARKS
LAS VEGAS      LGT SNOW  27  25  92 CALM      30.30F FOG
RATON          SNOW      29  28  96 S9        30.30S VSB 1/2 WCI  20
CLAYTON        CLOUDY    38  28  67 S16       30.33F WCI  29

$$
NMZ532>537-301800-
EASTCENTRAL PLAINS

CITY           SKY/WX    TMP DP  RH WIND       PRES   REMARKS
TUCUMCARI      LGT RAIN  39  31  72 SW7       30.38R WCI  34
CANNON AFB     NOT AVBL
CLOVIS AIRPORT CLOUDY    37  27  65 S12       30.39F WCI  30

$$
NMZ028-029-538-301800-
SOUTHEAST PLAINS

CITY           SKY/WX    TMP DP  RH WIND       PRES   REMARKS
ROSWELL        LGT RAIN  41  34  76 CALM      30.38F
ARTESIA        CLOUDY    39  36  87 SE5       30.40F
CARLSBAD       LGT RAIN  41  34  76 E10       30.38F
HOBBS          LGT RAIN  37  32  81 E15       30.40S WCI  28


$$


USA.gov is the U.S. government's official web portal to all federal, state and local government web resources and services.